星链-34810 (STARLINK-34810)

导读 | 豆包AI

STARLINK-34810是美国SpaceX公司星链(Starlink)星座的一员,于2025年7月31日发射升空。作为低轨互联网通信卫星,它延续了星链量产卫星设计,采用平板构型与氪工质霍尔推进器,服役寿命约5-7年。该卫星旨在为全球提供高速宽带互联网接入服务,是SpaceX构建大规模太空通信网络计划的组成部分,进一步扩充了星链星座的在轨规模。

基本信息
目录编号:
65068
目录名称:
STARLINK-34810
国际标识:
2025-165N
轨道中心:
EARTH
卫星名称:
星链-34810
卫星全名:
星链-34810 (STARLINK-34810)
卫星状态:
在轨 (已飞行272 天)
发射日期:
2025-07-31 UTC
国别 :
美国 (US)
星等 :
--
轨道信息
数据来源 国际轨道数据 AOE轨道数据
星历时间 2026-04-29T12:01:49+0800
6小时前
查看轨道信息
2026-04-22T22:00:00+0800
6天前
查看轨道信息
半长轴 6927.622km 6927.602km
偏心率 0.0001068 0.000001
轨道倾角 97.557° 97.588°
近地点辐角 184.411° 106.334°
升交点赤经 196.921° 190.462°
平近点角 175.710° 225.478°
近地点 548.745km 549.458km
远地点 550.225km 549.472km
周期 95.639分钟 95.639分钟
每日圈数 15.056588 15.056652
详细信息
固有亮度:
5
最大亮度:
2.5
卫星平台:
Starlink V1.0
覆盖范围:
全球
运营商:
太空探索技术公司
运营商所在国:
美国
制造商(研发单位):
太空探索技术公司
制造商所在国:
美国
使用方式:
暂无
卫星简介
Starlink 计划是 SpaceX 推出的全球卫星互联网项目,通过发射低轨道卫星,为全球尤其是偏远地区提供高速、低延迟的互联网服务。自 2019 年起,Starlink 已部署数千颗卫星,旨在缩小全球数字鸿沟,推动互联网普及。该项目还为军事、航空等行业提供通信支持,带来广泛经济效益。
2D轨道图
3D轨道图
轨道高度分析图
轨道倾角分析图
轨道综合分析图
查看轨道综合分析图